カタログに戻る

CAPELLA-19

ACADIA

運用中科学SSO
NORAD 67384·PAYLOAD·🇺🇸 United States

打ち上げ Jan 11, 2026 から Vandenberg Space Force Base

Loading…

次のパス (今後24時間)

TLE

最新Source: Space-Track

元期: Sep 14, 2026, 10:45 UTC

1 67384U 26004X   26257.44799365  .00002445  00000-0  28133-3 0  9994
2 67384  97.8064 254.2221 0001538  90.1892 269.9500 14.86653346 36532

AllMySatでCAPELLA-19をリアルタイム追跡

Download on the App Store